Terminal Aerodrome Forecast
Issued by NWS

Home | Current Version | Previous Version | Text Only | Print | Product List | Glossary On
Versions: 1 2 3 4 5 6 7 8 9 10 11 12 13 14 15
000
FTUS43 KICT 201200 AAA
TAFCNU
TAF AMD
KCNU 201236Z 2013/2112 18007KT P6SM SCT250
     FM201500 19016G23KT P6SM SCT250
     FM202000 19018G25KT P6SM VCTS SCT060CB BKN100
     FM210100 17011KT P6SM SCT200=

USA.gov is the U.S. government's official web portal to all federal, state and local government web resources and services.